| time (UTC) | temp C | wind direction | speed KPH | gust KPH | rain 1hr cm | rain 24hr cm | rain mn cm | humidity % | barometer mb |
| 20260507071550 | 1 | 0 | 1.6 | 8.0 | 0.00 | 2.34 | 0.00 | 98 | 988.5 |
| 20260507070050 | 2 | 180 | 6.4 | 14.5 | 0.00 | 2.34 | 0.00 | 98 | 987.9 |
| 20260507064554 | 2 | 141 | 9.7 | 22.5 | 0.00 | 2.36 | 0.00 | 98 | 988.1 |
| 20260507063048 | 2 | 175 | 11.3 | 19.3 | 0.00 | 2.36 | 0.00 | 99 | 987.7 |
| 20260507061551 | 2 | 167 | 11.3 | 22.5 | 0.00 | 2.36 | 0.00 | 98 | 987.8 |
| 20260507060052 | 2 | 158 | 12.9 | 20.9 | 0.00 | 2.36 | 0.00 | 99 | 987.8 |
| 20260507054631 | 2 | 147 | 12.9 | 19.3 | 0.00 | 2.44 | 0.00 | 98 | 987.8 |
| 20260507053055 | 2 | 195 | 9.7 | 16.1 | 0.00 | 2.44 | 0.00 | 98 | 988.0 |
| 20260507051552 | 3 | 157 | 8.0 | 11.3 | 0.00 | 2.44 | 0.00 | 98 | 988.1 |
| 20260507050057 | 3 | 170 | 6.4 | 12.9 | 0.00 | 2.44 | 0.00 | 98 | 988.0 |
| 20260507044600 | 3 | 150 | 8.0 | 22.5 | 0.00 | 2.44 | 0.00 | 98 | 988.0 |
| 20260507043050 | 3 | 163 | 11.3 | 17.7 | 0.03 | 2.44 | 0.00 | 98 | 988.3 |
| 20260507041600 | 3 | 144 | 3.2 | 14.5 | 0.05 | 2.44 | 0.00 | 98 | 988.4 |
| 20260507040058 | 3 | 160 | 12.9 | 20.9 | 0.05 | 2.44 | 0.00 | 98 | 989.0 |
| 20260507034558 | 3 | 126 | 9.7 | 19.3 | 0.10 | 2.44 | 2.44 | 98 | 988.9 |
| 20260507033053 | 4 | 145 | 11.3 | 24.1 | 0.13 | 2.41 | 2.41 | 98 | 989.0 |
| 20260507031604 | 4 | 144 | 11.3 | 19.3 | 0.18 | 2.39 | 2.39 | 98 | 988.8 |
| 20260507030055 | 4 | 127 | 12.9 | 20.9 | 0.38 | 2.39 | 2.39 | 98 | 988.7 |
| 20260507024553 | 4 | 156 | 9.7 | 22.5 | 0.53 | 2.34 | 2.34 | 98 | 988.8 |
| 20260507023103 | 5 | 133 | 4.8 | 12.9 | 0.53 | 2.29 | 2.29 | 97 | 988.4 |
| 20260507021554 | 5 | 133 | 3.2 | 11.3 | 0.46 | 2.21 | 2.21 | 97 | 988.4 |
| 20260507020056 | 5 | 150 | 6.4 | 14.5 | 0.25 | 2.01 | 2.01 | 97 | 988.5 |
| 20260507014602 | 6 | 145 | 0.0 | 6.4 | 0.08 | 1.80 | 1.80 | 97 | 988.1 |
| 20260507013053 | 6 | 145 | 0.0 | 6.4 | 0.03 | 1.75 | 1.75 | 97 | 988.2 |
| 20260507011552 | 6 | 143 | 4.8 | 6.4 | 0.05 | 1.75 | 1.75 | 97 | 988.2 |
| 20260507010049 | 7 | 172 | 0.0 | 8.0 | 0.08 | 1.75 | 1.75 | 97 | 988.1 |
| 20260507004552 | 7 | 91 | 6.4 | 11.3 | 0.10 | 1.73 | 1.73 | 96 | 988.6 |
| 20260507003055 | 7 | 3 | 6.4 | 9.7 | 0.23 | 1.73 | 1.73 | 97 | 988.3 |
| 20260507001551 | 7 | 39 | 3.2 | 6.4 | 0.38 | 1.70 | 1.70 | 97 | 988.4 |
| 20260507000054 | 7 | 155 | 3.2 | 9.7 | 0.38 | 1.68 | 1.68 | 97 | 988.4 |
| 20260506234554 | 7 | 42 | 4.8 | 8.0 | 0.38 | 1.63 | 1.63 | 97 | 988.7 |
| 20260506233108 | 7 | 96 | 6.4 | 12.9 | 0.23 | 1.47 | 1.47 | 96 | 988.7 |
| 20260506231556 | 8 | 88 | 8.0 | 19.3 | 0.08 | 1.32 | 1.32 | 95 | 988.3 |
| 20260506230053 | 10 | 116 | 11.3 | 22.5 | 0.08 | 1.30 | 1.30 | 95 | 987.8 |
| 20260506224550 | 11 | 147 | 8.0 | 14.5 | 0.05 | 1.32 | 1.24 | 93 | 987.7 |
| 20260506223053 | 11 | 354 | 6.4 | 16.1 | 0.05 | 1.32 | 1.24 | 93 | 987.5 |
| 20260506221553 | 11 | 41 | 9.7 | 19.3 | 0.08 | 1.32 | 1.24 | 92 | 987.8 |
| 20260506220052 | 11 | 6 | 11.3 | 24.1 | 0.05 | 1.30 | 1.22 | 93 | 988.1 |
| 20260506214550 | 11 | 39 | 11.3 | 19.3 | 0.05 | 1.68 | 1.19 | 93 | 988.3 |
| 20260506213105 | 11 | 45 | 12.9 | 20.9 | 0.08 | 1.68 | 1.19 | 93 | 988.2 |
| 20260506211551 | 11 | 31 | 12.9 | 24.1 | 0.08 | 1.65 | 1.17 | 92 | 988.3 |
| 20260506210054 | 11 | 349 | 14.5 | 22.5 | 0.10 | 1.65 | 1.17 | 92 | 988.2 |
| 20260506204554 | 11 | 31 | 8.0 | 16.1 | 0.10 | 1.63 | 1.14 | 93 | 988.4 |
| 20260506203046 | 11 | 49 | 8.0 | 16.1 | 0.10 | 1.60 | 1.12 | 94 | 988.3 |
| 20260506201550 | 11 | 31 | 8.0 | 17.7 | 0.10 | 1.57 | 1.09 | 94 | 988.4 |
| 20260506200051 | 11 | 33 | 8.0 | 16.1 | 0.13 | 1.55 | 1.07 | 93 | 988.5 |
| 20260506194616 | 11 | 16 | 11.3 | 19.3 | 0.15 | 1.52 | 1.04 | 93 | 988.7 |
| 20260506193102 | 11 | 321 | 6.4 | 22.5 | 0.15 | 1.47 | 1.02 | 93 | 988.9 |
| 20260506191551 | 11 | 28 | 8.0 | 17.7 | 0.30 | 1.47 | 0.99 | 93 | 989.1 |
| 20260506190052 | 11 | 22 | 11.3 | 29.0 | 0.30 | 1.42 | 0.94 | 93 | 989.3 |
| 20260506184550 | 11 | 29 | 11.3 | 30.6 | 0.33 | 1.37 | 0.89 | 94 | 989.2 |
| 20260506183051 | 10 | 346 | 6.4 | 19.3 | 0.43 | 1.32 | 0.86 | 94 | 989.5 |
| 20260506181550 | 10 | 9 | 8.0 | 16.1 | 0.33 | 1.17 | 0.69 | 93 | 989.7 |
| 20260506180104 | 10 | 360 | 9.7 | 19.3 | 0.28 | 1.12 | 0.64 | 94 | 989.5 |
| 20260506174555 | 10 | 341 | 11.3 | 19.3 | 0.20 | 1.02 | 0.53 | 94 | 989.7 |
| 20260506173057 | 11 | 322 | 9.7 | 25.7 | 0.10 | 0.91 | 0.43 | 92 | 989.7 |
| 20260506171601 | 11 | 16 | 16.1 | 24.1 | 0.05 | 0.84 | 0.36 | 91 | 989.7 |
| 20260506170111 | 11 | 27 | 14.5 | 33.8 | 0.05 | 0.84 | 0.36 | 93 | 990.0 |
| 20260506164607 | 11 | 326 | 20.9 | 33.8 | 0.03 | 0.81 | 0.33 | 91 | 990.2 |
| 20260506163124 | 11 | 33 | 22.5 | 33.8 | 0.03 | 0.81 | 0.33 | 91 | 990.7 |
| 20260506161614 | 11 | 350 | 17.7 | 35.4 | 0.00 | 0.79 | 0.30 | 91 | 991.0 |
| 20260506160053 | 11 | 16 | 17.7 | 30.6 | 0.00 | 0.79 | 0.30 | 90 | 991.1 |
| 20260506154609 | 11 | 14 | 24.1 | 46.7 | 0.00 | 0.79 | 0.30 | 90 | 991.5 |
| 20260506153102 | 11 | 8 | 19.3 | 30.6 | 0.00 | 0.79 | 0.30 | 91 | 991.2 |
| 20260506151600 | 11 | 5 | 17.7 | 25.7 | 0.03 | 0.79 | 0.30 | 92 | 991.1 |
| 20260506150051 | 10 | 340 | 22.5 | 33.8 | 0.08 | 0.79 | 0.30 | 94 | 991.1 |
| 20260506144551 | 10 | 330 | 27.4 | 43.5 | 0.10 | 0.79 | 0.30 | 94 | 990.8 |
| 20260506143104 | 10 | 332 | 24.1 | 40.2 | 0.10 | 0.79 | 0.30 | 94 | 990.8 |
| 20260506141556 | 9 | 339 | 24.1 | 38.6 | 0.08 | 0.76 | 0.28 | 95 | 991.4 |
| 20260506140049 | 8 | 322 | 29.0 | 45.1 | 0.03 | 0.71 | 0.23 | 96 | 991.6 |
| 20260506134550 | 8 | 343 | 32.2 | 46.7 | 0.00 | 0.69 | 0.20 | 97 | 991.3 |
| 20260506133053 | 8 | 337 | 32.2 | 46.7 | 0.00 | 0.69 | 0.20 | 97 | 990.9 |
| 20260506131550 | 8 | 337 | 32.2 | 51.5 | 0.00 | 0.69 | 0.20 | 95 | 991.5 |
| 20260506130053 | 8 | 342 | 27.4 | 51.5 | 0.00 | 0.69 | 0.20 | 94 | 991.5 |
| 20260506124552 | 9 | 13 | 16.1 | 27.4 | 0.00 | 0.69 | 0.20 | 93 | 992.0 |
| 20260506123054 | 8 | 115 | 1.6 | 8.0 | 0.00 | 0.69 | 0.20 | 95 | 992.0 |
| 20260506121600 | 8 | 131 | 8.0 | 11.3 | 0.00 | 0.69 | 0.20 | 94 | 992.3 |
| 20260506120059 | 8 | 262 | 3.2 | 8.0 | 0.00 | 0.69 | 0.20 | 94 | 992.4 |
| 20260506114559 | 8 | 160 | 3.2 | 8.0 | 0.00 | 0.69 | 0.20 | 94 | 992.6 |
| 20260506113054 | 9 | 131 | 3.2 | 8.0 | 0.00 | 0.69 | 0.20 | 92 | 992.4 |
| 20260506111551 | 9 | 49 | 1.6 | 6.4 | 0.00 | 0.69 | 0.20 | 91 | 992.3 |
| 20260506104550 | 8 | 2 | 4.8 | 8.0 | 0.00 | 0.69 | 0.20 | 92 | 992.2 |
| 20260506103049 | 8 | 14 | 4.8 | 14.5 | 0.00 | 0.69 | 0.20 | 92 | 992.6 |
| 20260506101602 | 7 | 343 | 8.0 | 12.9 | 0.00 | 0.69 | 0.20 | 94 | 992.5 |
| 20260506100050 | 7 | 10 | 3.2 | 8.0 | 0.00 | 0.69 | 0.20 | 94 | 992.9 |
| 20260506094615 | 7 | 24 | 3.2 | 9.7 | 0.00 | 0.69 | 0.20 | 94 | 992.7 |
| 20260506093054 | 7 | 351 | 8.0 | 11.3 | 0.00 | 0.69 | 0.20 | 95 | 992.5 |
| 20260506091550 | 7 | 8 | 1.6 | 6.4 | 0.00 | 0.69 | 0.20 | 94 | 993.1 |
| 20260506090052 | 7 | 349 | 3.2 | 9.7 | 0.00 | 0.69 | 0.20 | 93 | 992.4 |
| 20260506084552 | 8 | 55 | 3.2 | 9.7 | 0.00 | 0.69 | 0.20 | 94 | 992.4 |
| 20260506083059 | 8 | 28 | 6.4 | 12.9 | 0.00 | 0.69 | 0.20 | 94 | 992.8 |
| 20260506081555 | 7 | 321 | 4.8 | 8.0 | 0.05 | 0.69 | 0.20 | 95 | 992.5 |
| 20260506073053 | 8 | 123 | 4.8 | 14.5 | 0.13 | 0.69 | 0.20 | 94 | 993.0 |